Location: New Plymouth
(39.0670°S, 174.0830°E)
Time: 04:15:05
(UTC+12:00)

ISS - Visible Passes

Search period start: 30 May 2023 00:00
Search period end: 09 June 2023 00:00
Orbit: 412 x 419 km, 51.6° (Epoch: 29 May)

Date Brightness Start Highest point End Pass type
(mag) Time Alt. Az. Time Alt. Az. Time Alt. Az.
31 May -1.2 06:22:25 10° SSW 06:23:47 12° S 06:25:09 10° SE visible
01 Jun -0.9 05:35:29 10° SSE 05:35:29 10° SSE 05:35:35 10° SSE visible
02 Jun -1.5 06:21:40 12° SSW 06:23:39 17° SSE 06:26:01 10° ESE visible
03 Jun -1.1 05:34:58 14° SSE 05:34:58 14° SSE 05:36:32 10° SE visible
04 Jun -2.3 06:21:10 17° SSW 06:23:15 31° SSE 06:26:20 10° E visible
05 Jun -1.7 05:34:29 22° SSE 05:34:29 22° SSE 05:37:04 10° ESE visible
06 Jun -3.7 06:20:44 25° SW 06:22:33 77° SE 06:25:57 10° NE visible
07 Jun -2.7 05:34:08 42° SE 05:34:08 42° SE 05:36:59 10° ENE visible
08 Jun -0.2 04:47:34 11° E 04:47:34 11° E 04:47:48 10° E visible
08 Jun -2.9 06:20:28 27° W 06:21:33 35° NW 06:24:38 10° NNE visible
